MUOS-4

Last updated on June 27, 2019, 3:44 a.m. UTC

1 40887U 15044A   19177.15190337 -.00000087  00000-0  00000+0 0  9990
2 40887   3.3711 336.9162 0053115   3.7564  63.0364  1.00272292 14017
UTC
Height (km)
Latitude
Longitude
Inclination
Orbital Period
UTC large
Height (km)
Speed (km/s)
/
Latitude / Longitude
Inclination (degrees)
Orbital Period (minutes)
Azimuth
Elevation
Range (km)
Doppler Factor
iOS Compass Heading
iOS Angle

Next 30 passes for location: Hong Kong

Rise time Rise Azimuth (degrees) Set time Set Azimuth (degrees) Duration Max altitude (degrees)

No matching passes for this satellites